Location: Newark
(51.3318°N, 0.0053°E)
Time: 07:44:06
(UTC+00:00)

M-CUBED/EXP-1 PRIME - Pass Details

Date: 01 July 2022
Orbit: 422 x 631 km, 101.7° (Epoch: 15 August)

Event Time Altitude Azimuth Distance (km) Brightness Sun altitude
Exits shadow 00:06:45 11° 115° (ESE) 1,464 ? -15.5°
Maximum altitude 00:09:19 26° 59° (ENE) 908 ? -15.5°
Drops below altitude 10° 00:12:12 10° 1° (N) 1,604 ? -15.5°
Sets 00:14:29 0° 348° (NNW) 2,516 ? -15.5°
